Weather in Khyrdalan

Azerbaijan     40°27′06″N   49°44′30″E
temp.,
°C
wind,
m/s
gust,
m/s
humid.,
%
clouds,
%
prec.,
mm/h
press.,
hPa
HPBL,
m
23 april, fri
fri2301:00+13n111575100 0.1 1017470
04:00+12n101677100 0.1 1017553
07:00+13nnw11167395 0.0 1020650
10:00+15nnw1418630 0.0 1021847
13:00+15n1418653 0.0 1022853
16:00+14n13186539 0.0 1023841
19:00+13n11167092 0.0 1024711
22:00+13n7107262 0.0 1025421
24 april, sat
sat2401:00+13n237017 0.0 1024143
04:00+13s337027 0.0 102282
07:00+13ssw59725 0.0 1021313
10:00+17ssw911465 0.0 1020645
13:00+19s10114550 0.0 1018844
16:00+18s10115056 0.0 1016484
19:00+16ssw4657100 0.0 1018353
22:00+13nne687195 0.0 1021385
25 april, sun
sun2501:00+12nw56777 0.0 1020196
04:00+12nnw6117134 0.0 1020294
07:00+13nnw59670 0.0 1020262
10:00+16nnw45480 0.0 1020407
13:00+18nne33441 0.0 1019659
16:00+19ne22433 0.0 1017711
19:00+17nne33485 0.0 1017279
22:00+15nnw22545 0.0 1017162
26 april, mon
mon2601:00+15s34510 0.0 1015147
04:00+15s59610 0.0 1012202
07:00+15s713600 0.0 1011322
10:00+21sw69440 0.0 1011595
13:00+23s6745100 0.0 1009672
16:00+22s810487 0.0 1006397
19:00+19s913560 0.0 1005325
22:00+14nnw23655 0.0 1008166
27 april, tue
tue2701:00+14n8156595 0.0 1008372
04:00+16n1220625 0.0 1009713
07:00+14n15217691 0.0 1013739
10:00+14n15197411 0.0 1015743
13:00+15n16197195 0.0 1015774
16:00+14n151869100 0.0 1016766
19:00+12n131680100 0.0 1017537
22:00+12n111481100 0.8 1017574